TimeEDT,TemperatureF,Dew PointF,Humidity,Sea Level PressureIn,VisibilityMPH,Wind Direction,Wind SpeedMPH,Gust SpeedMPH,PrecipitationIn,Events,Conditions,WindDirDegrees,DateUTC
12:03 AM,77.0,75.2,94,29.92,10.0,Calm,Calm,-,N/A,,Clear,0,2013-07-22 04:03:00
12:23 AM,78.8,73.4,83,29.92,10.0,Calm,Calm,-,N/A,,Clear,0,2013-07-22 04:23:00
12:43 AM,78.8,73.4,83,29.92,10.0,Calm,Calm,-,N/A,,Clear,0,2013-07-22 04:43:00
1:03 AM,77.0,73.4,89,29.92,10.0,Calm,Calm,-,N/A,,Clear,0,2013-07-22 05:03:00
1:23 AM,77.0,73.4,89,29.92,10.0,Calm,Calm,-,N/A,,Clear,0,2013-07-22 05:23:00
1:43 AM,77.0,73.4,89,29.92,10.0,SW,3.5,-,N/A,,Clear,220,2013-07-22 05:43:00
2:03 AM,77.0,75.2,94,29.92,10.0,SW,4.6,-,N/A,,Clear,230,2013-07-22 06:03:00
2:23 AM,77.0,77.0,100,29.92,7.0,WSW,3.5,-,N/A,,Scattered Clouds,240,2013-07-22 06:23:00
2:43 AM,77.0,77.0,100,29.92,7.0,Calm,Calm,-,N/A,,Scattered Clouds,0,2013-07-22 06:43:00
3:03 AM,77.0,77.0,100,29.92,7.0,Calm,Calm,-,N/A,,Scattered Clouds,0,2013-07-22 07:03:00
3:23 AM,77.0,77.0,100,29.92,10.0,West,4.6,-,N/A,,Scattered Clouds,270,2013-07-22 07:23:00
3:43 AM,77.0,75.2,94,29.91,10.0,Calm,Calm,-,N/A,,Clear,0,2013-07-22 07:43:00
4:03 AM,77.0,75.2,94,29.90,10.0,Calm,Calm,-,N/A,,Clear,0,2013-07-22 08:03:00
4:23 AM,77.0,75.2,94,29.90,7.0,Calm,Calm,-,N/A,,Clear,0,2013-07-22 08:23:00
4:43 AM,75.2,75.2,100,29.90,7.0,Calm,Calm,-,N/A,,Clear,0,2013-07-22 08:43:00
5:03 AM,77.0,75.2,94,29.91,10.0,Calm,Calm,-,N/A,,Scattered Clouds,0,2013-07-22 09:03:00
5:23 AM,77.0,75.2,94,29.90,7.0,West,3.5,-,N/A,,Mostly Cloudy,260,2013-07-22 09:23:00
5:43 AM,77.0,75.2,94,29.90,10.0,Calm,Calm,-,N/A,,Mostly Cloudy,0,2013-07-22 09:43:00
6:03 AM,77.0,75.2,94,29.90,10.0,Calm,Calm,-,N/A,,Mostly Cloudy,0,2013-07-22 10:03:00
6:23 AM,77.0,73.4,89,29.90,10.0,Calm,Calm,-,N/A,,Overcast,0,2013-07-22 10:23:00
6:43 AM,77.0,73.4,89,29.90,10.0,Calm,Calm,-,N/A,,Scattered Clouds,0,2013-07-22 10:43:00
7:03 AM,77.0,75.2,94,29.91,10.0,Calm,Calm,-,N/A,,Scattered Clouds,0,2013-07-22 11:03:00
7:23 AM,77.0,75.2,94,29.91,10.0,Calm,Calm,-,N/A,,Clear,0,2013-07-22 11:23:00
7:43 AM,77.0,73.4,89,29.92,10.0,Calm,Calm,-,N/A,,Clear,0,2013-07-22 11:43:00
8:04 AM,78.8,73.4,83,29.92,10.0,Calm,Calm,-,N/A,,Clear,0,2013-07-22 12:04:00
8:24 AM,78.8,73.4,83,29.92,10.0,Calm,Calm,-,N/A,,Clear,0,2013-07-22 12:24:00
8:44 AM,78.8,71.6,78,29.92,10.0,Calm,Calm,-,N/A,,Clear,0,2013-07-22 12:44:00
9:04 AM,78.8,71.6,78,29.92,10.0,Calm,Calm,-,N/A,,Clear,0,2013-07-22 13:04:00
9:24 AM,80.6,71.6,74,29.92,10.0,South,3.5,-,N/A,,Scattered Clouds,170,2013-07-22 13:24:00
9:44 AM,78.8,71.6,78,29.92,10.0,Calm,Calm,-,N/A,,Scattered Clouds,0,2013-07-22 13:44:00
10:04 AM,78.8,71.6,78,29.92,10.0,SW,3.5,-,N/A,,Scattered Clouds,220,2013-07-22 14:04:00
10:24 AM,80.6,71.6,74,29.92,10.0,Calm,Calm,-,N/A,,Scattered Clouds,0,2013-07-22 14:24:00
10:44 AM,80.6,71.6,74,29.92,10.0,SW,3.5,-,N/A,,Clear,220,2013-07-22 14:44:00
11:04 AM,80.6,69.8,70,29.92,10.0,SSW,3.5,-,N/A,,Clear,210,2013-07-22 15:04:00
11:24 AM,80.6,69.8,70,29.92,10.0,South,3.5,-,N/A,,Clear,180,2013-07-22 15:24:00
11:44 AM,80.6,69.8,70,29.92,10.0,SW,3.5,-,N/A,,Clear,230,2013-07-22 15:44:00
12:04 PM,82.4,69.8,66,29.91,10.0,South,3.5,-,N/A,,Clear,170,2013-07-22 16:04:00
12:24 PM,82.4,69.8,66,29.91,10.0,South,5.8,-,N/A,,Clear,170,2013-07-22 16:24:00
12:44 PM,82.4,69.8,66,29.90,10.0,SSE,6.9,-,N/A,,Clear,150,2013-07-22 16:44:00
1:04 PM,84.2,69.8,62,29.90,10.0,SE,3.5,-,N/A,,Clear,140,2013-07-22 17:04:00
1:24 PM,84.2,69.8,62,29.89,10.0,SE,4.6,-,N/A,,Scattered Clouds,140,2013-07-22 17:24:00
1:44 PM,84.2,69.8,62,29.89,10.0,South,4.6,-,N/A,,Scattered Clouds,190,2013-07-22 17:44:00
2:04 PM,82.4,71.6,70,29.88,10.0,West,4.6,-,N/A,,Clear,270,2013-07-22 18:04:00
2:24 PM,82.4,71.6,70,29.87,10.0,West,3.5,-,N/A,,Clear,270,2013-07-22 18:24:00
2:44 PM,84.2,73.4,70,29.87,10.0,Calm,Calm,-,N/A,,Clear,0,2013-07-22 18:44:00
3:04 PM,86.0,69.8,58,29.85,10.0,SSE,6.9,-,N/A,,Clear,160,2013-07-22 19:04:00
3:24 PM,86.0,69.8,58,29.84,10.0,SSE,5.8,-,N/A,,Clear,160,2013-07-22 19:24:00
3:44 PM,86.0,71.6,62,29.84,10.0,SSE,9.2,-,N/A,,Clear,150,2013-07-22 19:44:00
4:04 PM,86.0,71.6,62,29.83,10.0,SSE,6.9,-,N/A,,Clear,160,2013-07-22 20:04:00
4:25 PM,87.8,69.8,55,29.82,10.0,SSE,8.1,-,N/A,,Scattered Clouds,160,2013-07-22 20:25:00
4:45 PM,87.8,69.8,55,29.81,10.0,SSE,6.9,-,N/A,,Clear,150,2013-07-22 20:45:00
5:05 PM,87.8,69.8,55,29.80,10.0,South,6.9,-,N/A,,Clear,170,2013-07-22 21:05:00
5:25 PM,87.8,69.8,55,29.81,10.0,SSE,8.1,-,N/A,,Clear,150,2013-07-22 21:25:00
5:45 PM,86.0,69.8,58,29.79,10.0,SSE,9.2,-,N/A,,Clear,160,2013-07-22 21:45:00
6:05 PM,86.0,71.6,62,29.79,10.0,SSW,10.4,-,N/A,,Clear,200,2013-07-22 22:05:00
6:25 PM,86.0,71.6,62,29.78,10.0,South,8.1,-,N/A,,Clear,170,2013-07-22 22:25:00
6:45 PM,86.0,71.6,62,29.78,10.0,South,8.1,-,N/A,,Clear,170,2013-07-22 22:45:00
7:05 PM,86.0,71.6,62,29.79,10.0,South,8.1,-,N/A,,Clear,170,2013-07-22 23:05:00
7:25 PM,86.0,71.6,62,29.79,10.0,SSE,5.8,-,N/A,,Clear,160,2013-07-22 23:25:00
7:45 PM,84.2,71.6,66,29.79,10.0,SSE,8.1,-,N/A,,Clear,160,2013-07-22 23:45:00
8:05 PM,82.4,71.6,70,29.79,10.0,South,5.8,-,N/A,,Clear,170,2013-07-23 00:05:00
8:25 PM,82.4,73.4,74,29.79,10.0,South,5.8,-,N/A,,Clear,180,2013-07-23 00:25:00
8:45 PM,82.4,73.4,74,29.78,10.0,South,8.1,-,N/A,,Clear,170,2013-07-23 00:45:00
9:05 PM,82.4,73.4,74,29.78,10.0,SSE,9.2,-,N/A,,Clear,160,2013-07-23 01:05:00
9:25 PM,82.4,73.4,74,29.79,10.0,South,11.5,16.1,N/A,,Clear,170,2013-07-23 01:25:00
9:45 PM,82.4,71.6,70,29.79,10.0,South,8.1,-,N/A,,Scattered Clouds,170,2013-07-23 01:45:00
10:05 PM,80.6,71.6,74,29.78,10.0,South,8.1,-,N/A,,Clear,180,2013-07-23 02:05:00
10:25 PM,80.6,71.6,74,29.78,10.0,South,11.5,17.3,N/A,,Clear,180,2013-07-23 02:25:00
10:45 PM,80.6,71.6,74,29.78,10.0,South,9.2,-,N/A,,Clear,190,2013-07-23 02:45:00
11:05 PM,80.6,73.4,79,29.77,10.0,South,8.1,-,N/A,,Clear,190,2013-07-23 03:05:00
11:25 PM,80.6,73.4,79,29.77,10.0,South,6.9,-,N/A,,Clear,190,2013-07-23 03:25:00
11:45 PM,80.6,73.4,79,29.77,10.0,South,8.1,-,N/A,,Clear,180,2013-07-23 03:45:00